QPF
0.00 0.00 0.00 0.00 0.00 0.00 0.00 0.00 0.00 0.00 0.00 0.01 0.02 0.02 0.01 0.01 0.01 0.01 0.02 0.03 0.04 0.08 0.09 0.14 0.19 0.19 0.14 0.09 0.06 0.06 0.07 0.08 0.07 0.07 0.07 0.08 0.12 0.15 0.15 0.12 0.06 0.03 0.04 0.06
0.00 0.00 0.00 0.00 0.00 0.00 0.00 0.00 0.00 0.00 0.01 0.01 0.01 0.01 0.01 0.01 0.01 0.01 0.02 0.04 0.05 0.05 0.06 0.07 0.11 0.16 0.16 0.12 0.08 0.08 0.08 0.10 0.10 0.08 0.09 0.11 0.17 0.19 0.16 0.11 0.08 0.05 0.04 0.06
0.00 0.00 0.00 0.00 0.00 0.00 0.00 0.00 0.00 0.00 0.01 0.01 0.02 0.01 0.02 0.02 0.01 0.01 0.02 0.02 0.03 0.03 0.03 0.04 0.06 0.10 0.17 0.16 0.14 0.12 0.11 0.14 0.14 0.10 0.10 0.12 0.13 0.12 0.10 0.09 0.07 0.07 0.08 0.08
0.00 0.00 0.00 0.00 0.00 0.00 0.00 0.00 0.00 0.01 0.01 0.01 0.01 0.01 0.01 0.01 0.02 0.02 0.03 0.04 0.03 0.02 0.03 0.03 0.03 0.03 0.06 0.10 0.11 0.11 0.13 0.12 0.11 0.11 0.11 0.10 0.09 0.09 0.11 0.12 0.12 0.11 0.09 0.08
0.00 0.00 0.00 0.00 0.00 0.00 0.00 0.01 0.01 0.01 0.01 0.01 0.01 0.02 0.02 0.02 0.02 0.03 0.05 0.06 0.05 0.03 0.02 0.03 0.03 0.03 0.04 0.06 0.06 0.06 0.09 0.15 0.18 0.15 0.14 0.12 0.09 0.10 0.11 0.10 0.09 0.09 0.08 0.08
0.01 0.00 0.01 0.01 0.01 0.01 0.01 0.02 0.02 0.02 0.02 0.02 0.05 0.05 0.02 0.02 0.04 0.04 0.05 0.05 0.06 0.04 0.02 0.02 0.03 0.03 0.02 0.03 0.05 0.08 0.10 0.14 0.19 0.16 0.11 0.09 0.08 0.08 0.07 0.07 0.08 0.08 0.08 0.08
0.01 0.01 0.01 0.01 0.01 0.01 0.01 0.02 0.03 0.03 0.03 0.03 0.03 0.04 0.02 0.04 0.07 0.07 0.05 0.03 0.03 0.03 0.02 0.02 0.02 0.02 0.02 0.02 0.03 0.04 0.05 0.08 0.10 0.10 0.09 0.13 0.15 0.12 0.08 0.07 0.06 0.06 0.07 0.09
0.03 0.03 0.03 0.02 0.01 0.02 0.02 0.02 0.04 0.07 0.06 0.05 0.04 0.03 0.02 0.03 0.04 0.05 0.05 0.04 0.03 0.02 0.02 0.02 0.02 0.02 0.02 0.03 0.04 0.05 0.07 0.10 0.13 0.12 0.11 0.14 0.19 0.17 0.11 0.09 0.06 0.04 0.04 0.04
0.04 0.05 0.05 0.03 0.02 0.02 0.02 0.02 0.03 0.07 0.07 0.05 0.04 0.04 0.03 0.02 0.02 0.02 0.02 0.03 0.02 0.02 0.02 0.03 0.02 0.02 0.02 0.03 0.04 0.06 0.07 0.11 0.13 0.12 0.14 0.15 0.14 0.16 0.13 0.09 0.07 0.05 0.03 0.04
0.05 0.05 0.05 0.05 0.04 0.04 0.04 0.04 0.05 0.04 0.05 0.05 0.05 0.05 0.05 0.03 0.02 0.01 0.01 0.04 0.06 0.04 0.03 0.04 0.04 0.03 0.04 0.05 0.04 0.05 0.06 0.09 0.12 0.13 0.12 0.15 0.19 0.14 0.11 0.09 0.07 0.06 0.05 0.05
0.03 0.04 0.04 0.04 0.04 0.04 0.04 0.03 0.07 0.10 0.07 0.05 0.04 0.04 0.03 0.03 0.03 0.02 0.01 0.01 0.05 0.08 0.04 0.03 0.04 0.05 0.05 0.05 0.05 0.06 0.06 0.07 0.08 0.08 0.09 0.11 0.12 0.12 0.10 0.10 0.10 0.10 0.10 0.09
0.04 0.03 0.02 0.03 0.03 0.03 0.04 0.03 0.04 0.08 0.08 0.07 0.06 0.04 0.03 0.03 0.03 0.02 0.02 0.02 0.02 0.04 0.04 0.03 0.04 0.05 0.06 0.06 0.06 0.07 0.08 0.08 0.09 0.10 0.12 0.16 0.15 0.15 0.16 0.15 0.15 0.16 0.14 0.10
0.07 0.06 0.05 0.07 0.06 0.04 0.05 0.06 0.06 0.10 0.08 0.05 0.05 0.03 0.03 0.04 0.04 0.03 0.02 0.02 0.02 0.03 0.03 0.02 0.03 0.04 0.04 0.07 0.08 0.06 0.06 0.08 0.10 0.09 0.09 0.12 0.13 0.12 0.12 0.12 0.11 0.12 0.11 0.08
0.07 0.07 0.07 0.08 0.10 0.09 0.08 0.08 0.06 0.09 0.06 0.05 0.04 0.03 0.03 0.03 0.03 0.02 0.02 0.01 0.02 0.02 0.02 0.02 0.02 0.02 0.02 0.05 0.07 0.07 0.06 0.07 0.08 0.07 0.07 0.08 0.08 0.07 0.07 0.06 0.05 0.04 0.07 0.08
0.02 0.01 0.01 0.02 0.03 0.06 0.07 0.08 0.09 0.11 0.05 0.05 0.05 0.04 0.03 0.03 0.02 0.02 0.01 0.01 0.01 0.01 0.01 0.01 0.02 0.02 0.02 0.04 0.07 0.08 0.09 0.08 0.08 0.08 0.10 0.11 0.12 0.12 0.09 0.06 0.05 0.05 0.06 0.07
0.05 0.04 0.04 0.03 0.03 0.05 0.05 0.05 0.06 0.08 0.08 0.08 0.09 0.08 0.06 0.03 0.03 0.03 0.02 0.02 0.02 0.02 0.02 0.01 0.01 0.02 0.03 0.04 0.05 0.07 0.09 0.09 0.09 0.09 0.09 0.11 0.12 0.11 0.09 0.07 0.05 0.06 0.08 0.09
0.04 0.03 0.03 0.03 0.03 0.06 0.06 0.05 0.08 0.09 0.09 0.08 0.06 0.05 0.05 0.04 0.03 0.03 0.03 0.03 0.02 0.02 0.02 0.02 0.03 0.03 0.04 0.04 0.05 0.07 0.08 0.07 0.07 0.07 0.06 0.06 0.05 0.06 0.06 0.05 0.05 0.07 0.12 0.13
0.01 0.02 0.02 0.02 0.02 0.05 0.07 0.09 0.12 0.09 0.07 0.04 0.04 0.05 0.05 0.04 0.04 0.03 0.04 0.03 0.03 0.03 0.03 0.04 0.04 0.04 0.04 0.05 0.06 0.07 0.08 0.07 0.07 0.07 0.07 0.05 0.05 0.04 0.05 0.06 0.08 0.10 0.13 0.16
0.01 0.01 0.02 0.02 0.02 0.04 0.06 0.07 0.07 0.06 0.05 0.04 0.04 0.04 0.05 0.04 0.04 0.05 0.05 0.04 0.03 0.04 0.06 0.08 0.05 0.03 0.04 0.05 0.06 0.05 0.06 0.05 0.05 0.05 0.05 0.04 0.04 0.05 0.05 0.07 0.08 0.10 0.13 0.14
0.02 0.02 0.02 0.02 0.02 0.02 0.03 0.04 0.07 0.07 0.06 0.05 0.04 0.04 0.04 0.04 0.04 0.04 0.06 0.07 0.07 0.07 0.08 0.11 0.10 0.06 0.05 0.05 0.04 0.03 0.03 0.04 0.04 0.04 0.04 0.05 0.06 0.06 0.06 0.05 0.05 0.05 0.05 0.06
0.02 0.03 0.04 0.04 0.04 0.03 0.04 0.03 0.04 0.04 0.05 0.06 0.05 0.04 0.03 0.03 0.04 0.05 0.05 0.06 0.07 0.07 0.06 0.06 0.08 0.07 0.05 0.04 0.04 0.03 0.04 0.04 0.04 0.04 0.04 0.05 0.05 0.04 0.04 0.04 0.03 0.03 0.03 0.04
0.02 0.03 0.04 0.05 0.05 0.05 0.05 0.04 0.04 0.05 0.06 0.06 0.05 0.04 0.03 0.03 0.04 0.05 0.04 0.05 0.05 0.05 0.04 0.04 0.05 0.04 0.05 0.05 0.04 0.04 0.04 0.04 0.03 0.03 0.04 0.04 0.03 0.02 0.02 0.02 0.02 0.02 0.02 0.03
0.03 0.02 0.03 0.03 0.04 0.05 0.05 0.05 0.05 0.05 0.05 0.05 0.06 0.07 0.06 0.05 0.05 0.05 0.04 0.03 0.04 0.06 0.05 0.05 0.05 0.04 0.04 0.05 0.05 0.05 0.05 0.03 0.03 0.03 0.03 0.03 0.02 0.02 0.01 0.01 0.01 0.01 0.01 0.01
0.03 0.03 0.03 0.03 0.03 0.03 0.04 0.04 0.05 0.04 0.04 0.04 0.05 0.06 0.05 0.05 0.04 0.04 0.03 0.03 0.04 0.04 0.04 0.05 0.06 0.06 0.05 0.05 0.05 0.05 0.04 0.03 0.03 0.03 0.02 0.02 0.02 0.01 0.01 0.01 0.01 0.01 0.01 0.01
0.03 0.03 0.04 0.04 0.03 0.03 0.04 0.05 0.05 0.05 0.05 0.05 0.04 0.04 0.04 0.04 0.03 0.03 0.03 0.03 0.03 0.03 0.04 0.04 0.04 0.05 0.04 0.04 0.05 0.04 0.03 0.02 0.03 0.03 0.03 0.02 0.03 0.03 0.02 0.02 0.02 0.02 0.02 0.01
0.05 0.05 0.05 0.06 0.06 0.06 0.07 0.08 0.08 0.07 0.06 0.06 0.05 0.04 0.04 0.04 0.03 0.04 0.04 0.04 0.03 0.03 0.03 0.04 0.04 0.05 0.06 0.06 0.05 0.04 0.03 0.03 0.03 0.02 0.02 0.02 0.02 0.02 0.02 0.02 0.02 0.02 0.01 0.01
0.09 0.11 0.12 0.10 0.10 0.11 0.11 0.10 0.08 0.07 0.07 0.07 0.08 0.06 0.06 0.05 0.05 0.05 0.04 0.04 0.03 0.03 0.03 0.04 0.04 0.04 0.07 0.07 0.06 0.03 0.02 0.03 0.03 0.03 0.02 0.02 0.02 0.02 0.02 0.02 0.01 0.01 0.01 0.01
MSLP
1007.46 1007.92 1008.40 1008.89 1009.40 1009.89 1010.33 1010.68 1010.89 1010.95 1010.86 1010.65 1010.37 1010.08 1009.84 1009.70 1009.69 1009.79 1009.99 1010.22 1010.45 1010.62 1010.70 1010.69 1010.60 1010.48 1010.35 1010.29 1010.32 1010.47 1010.72 1011.07 1011.46 1011.87 1012.23 1012.52 1012.71 1012.79 1012.78 1012.69 1012.55 1012.38 1012.22 1012.09
1007.84 1008.27 1008.63 1008.95 1009.23 1009.50 1009.74 1009.95 1010.11 1010.23 1010.29 1010.32 1010.33 1010.36 1010.42 1010.52 1010.67 1010.85 1011.03 1011.18 1011.28 1011.30 1011.23 1011.10 1010.93 1010.76 1010.64 1010.59 1010.65 1010.82 1011.09 1011.42 1011.79 1012.14 1012.43 1012.64 1012.74 1012.75 1012.66 1012.51 1012.33 1012.15 1011.99 1011.90
1008.52 1008.91 1009.17 1009.34 1009.45 1009.53 1009.60 1009.68 1009.79 1009.93 1010.10 1010.30 1010.53 1010.78 1011.04 1011.31 1011.55 1011.76 1011.91 1011.98 1011.96 1011.86 1011.70 1011.49 1011.28 1011.10 1011.00 1010.99 1011.08 1011.27 1011.54 1011.85 1012.17 1012.44 1012.64 1012.75 1012.75 1012.67 1012.51 1012.30 1012.09 1011.89 1011.74 1011.68
1009.43 1009.79 1009.98 1010.03 1010.01 1009.94 1009.87 1009.85 1009.90 1010.03 1010.24 1010.53 1010.87 1011.24 1011.62 1011.96 1012.24 1012.44 1012.55 1012.55 1012.45 1012.27 1012.05 1011.82 1011.61 1011.46 1011.40 1011.44 1011.57 1011.78 1012.04 1012.31 1012.55 1012.73 1012.83 1012.84 1012.75 1012.57 1012.35 1012.10 1011.86 1011.66 1011.53 1011.49
1010.45 1010.77 1010.90 1010.88 1010.76 1010.59 1010.43 1010.33 1010.31 1010.40 1010.61 1010.91 1011.28 1011.68 1012.08 1012.43 1012.70 1012.87 1012.93 1012.88 1012.73 1012.53 1012.30 1012.09 1011.92 1011.83 1011.82 1011.91 1012.07 1012.29 1012.52 1012.74 1012.90 1013.00 1013.00 1012.91 1012.74 1012.51 1012.24 1011.97 1011.72 1011.54 1011.43 1011.41
1011.39 1011.67 1011.76 1011.70 1011.53 1011.31 1011.09 1010.92 1010.85 1010.90 1011.06 1011.33 1011.68 1012.05 1012.42 1012.73 1012.96 1013.09 1013.11 1013.03 1012.87 1012.68 1012.49 1012.32 1012.21 1012.19 1012.24 1012.37 1012.55 1012.76 1012.96 1013.11 1013.21 1013.22 1013.15 1012.99 1012.77 1012.51 1012.23 1011.97 1011.75 1011.59 1011.51 1011.52
1012.07 1012.31 1012.39 1012.31 1012.13 1011.90 1011.67 1011.48 1011.38 1011.39 1011.51 1011.73 1012.02 1012.33 1012.64 1012.90 1013.08 1013.17 1013.17 1013.09 1012.95 1012.80 1012.65 1012.55 1012.51 1012.54 1012.64 1012.80 1012.98 1013.17 1013.32 1013.43 1013.46 1013.41 1013.29 1013.10 1012.87 1012.61 1012.37 1012.14 1011.97 1011.85 1011.81 1011.83
1012.40 1012.61 1012.68 1012.62 1012.47 1012.27 1012.06 1011.90 1011.80 1011.80 1011.89 1012.06 1012.30 1012.55 1012.80 1013.01 1013.15 1013.21 1013.21 1013.14 1013.04 1012.93 1012.84 1012.80 1012.81 1012.89 1013.01 1013.17 1013.34 1013.49 1013.59 1013.65 1013.63 1013.55 1013.42 1013.23 1013.03 1012.82 1012.63 1012.47 1012.36 1012.30 1012.29 1012.34
1012.37 1012.56 1012.64 1012.62 1012.52 1012.39 1012.25 1012.14 1012.09 1012.10 1012.19 1012.35 1012.55 1012.76 1012.96 1013.13 1013.24 1013.30 1013.30 1013.25 1013.19 1013.12 1013.08 1013.07 1013.11 1013.20 1013.32 1013.45 1013.58 1013.69 1013.75 1013.76 1013.72 1013.64 1013.51 1013.37 1013.22 1013.09 1012.98 1012.90 1012.86 1012.86 1012.89 1012.95
1012.08 1012.25 1012.35 1012.38 1012.36 1012.32 1012.27 1012.25 1012.27 1012.34 1012.46 1012.62 1012.81 1013.00 1013.18 1013.33 1013.43 1013.48 1013.49 1013.46 1013.42 1013.38 1013.35 1013.35 1013.39 1013.45 1013.53 1013.62 1013.69 1013.75 1013.77 1013.75 1013.70 1013.63 1013.54 1013.46 1013.39 1013.34 1013.32 1013.33 1013.37 1013.42 1013.48 1013.55
1011.67 1011.83 1011.96 1012.05 1012.12 1012.18 1012.24 1012.32 1012.43 1012.57 1012.74 1012.93 1013.13 1013.32 1013.49 1013.63 1013.72 1013.77 1013.78 1013.76 1013.71 1013.67 1013.63 1013.61 1013.60 1013.61 1013.63 1013.65 1013.66 1013.65 1013.63 1013.60 1013.55 1013.51 1013.47 1013.46 1013.47 1013.51 1013.59 1013.67 1013.77 1013.87 1013.96 1014.03
1011.33 1011.49 1011.64 1011.79 1011.95 1012.10 1012.27 1012.45 1012.65 1012.86 1013.08 1013.31 1013.53 1013.72 1013.89 1014.02 1014.10 1014.14 1014.14 1014.10 1014.04 1013.96 1013.88 1013.80 1013.72 1013.66 1013.59 1013.53 1013.47 1013.41 1013.36 1013.31 1013.27 1013.26 1013.28 1013.34 1013.43 1013.55 1013.69 1013.84 1013.99 1014.13 1014.23 1014.31
1011.17 1011.34 1011.52 1011.72 1011.94 1012.18 1012.43 1012.70 1012.97 1013.23 1013.50 1013.75 1013.98 1014.18 1014.34 1014.45 1014.52 1014.54 1014.51 1014.44 1014.33 1014.21 1014.06 1013.91 1013.75 1013.60 1013.45 1013.31 1013.18 1013.06 1012.97 1012.91 1012.89 1012.91 1012.98 1013.09 1013.24 1013.42 1013.61 1013.81 1014.00 1014.16 1014.28 1014.36
1011.26 1011.43 1011.63 1011.88 1012.15 1012.45 1012.76 1013.07 1013.39 1013.69 1013.98 1014.23 1014.46 1014.64 1014.78 1014.87 1014.91 1014.90 1014.83 1014.72 1014.57 1014.38 1014.17 1013.94 1013.70 1013.46 1013.23 1013.01 1012.82 1012.66 1012.54 1012.47 1012.46 1012.50 1012.60 1012.75 1012.94 1013.16 1013.39 1013.62 1013.83 1014.01 1014.14 1014.23
1011.55 1011.73 1011.96 1012.23 1012.54 1012.87 1013.21 1013.55 1013.88 1014.19 1014.46 1014.71 1014.91 1015.06 1015.17 1015.23 1015.23 1015.18 1015.08 1014.92 1014.72 1014.48 1014.21 1013.91 1013.60 1013.29 1012.99 1012.71 1012.46 1012.27 1012.12 1012.04 1012.03 1012.09 1012.21 1012.38 1012.59 1012.84 1013.09 1013.33 1013.56 1013.75 1013.90 1014.00
1011.96 1012.16 1012.41 1012.71 1013.03 1013.38 1013.73 1014.06 1014.38 1014.66 1014.91 1015.12 1015.28 1015.39 1015.46 1015.48 1015.45 1015.36 1015.23 1015.04 1014.80 1014.52 1014.20 1013.85 1013.49 1013.13 1012.78 1012.46 1012.17 1011.95 1011.79 1011.70 1011.68 1011.74 1011.86 1012.05 1012.27 1012.52 1012.78 1013.03 1013.26 1013.47 1013.63 1013.75
1012.40 1012.63 1012.91 1013.22 1013.56 1013.90 1014.23 1014.55 1014.83 1015.08 1015.28 1015.43 1015.55 1015.61 1015.64 1015.62 1015.56 1015.45 1015.29 1015.08 1014.83 1014.52 1014.18 1013.81 1013.43 1013.03 1012.66 1012.31 1012.00 1011.76 1011.58 1011.48 1011.46 1011.51 1011.63 1011.80 1012.02 1012.27 1012.53 1012.78 1013.02 1013.23 1013.41 1013.55
1012.80 1013.06 1013.36 1013.69 1014.03 1014.37 1014.68 1014.96 1015.20 1015.39 1015.54 1015.64 1015.70 1015.72 1015.71 1015.66 1015.58 1015.45 1015.29 1015.08 1014.82 1014.52 1014.18 1013.81 1013.42 1013.03 1012.64 1012.28 1011.97 1011.71 1011.52 1011.41 1011.37 1011.40 1011.51 1011.67 1011.88 1012.11 1012.36 1012.61 1012.85 1013.07 1013.25 1013.41
1013.11 1013.42 1013.75 1014.09 1014.43 1014.75 1015.03 1015.27 1015.46 1015.60 1015.69 1015.74 1015.75 1015.73 1015.69 1015.62 1015.52 1015.40 1015.24 1015.04 1014.80 1014.53 1014.21 1013.86 1013.48 1013.10 1012.72 1012.37 1012.06 1011.79 1011.59 1011.47 1011.41 1011.42 1011.51 1011.64 1011.83 1012.05 1012.28 1012.52 1012.75 1012.96 1013.15 1013.30
1013.38 1013.71 1014.07 1014.42 1014.75 1015.05 1015.30 1015.49 1015.63 1015.71 1015.75 1015.75 1015.72 1015.67 1015.60 1015.52 1015.42 1015.30 1015.16 1014.98 1014.77 1014.53 1014.24 1013.92 1013.58 1013.22 1012.86 1012.52 1012.21 1011.95 1011.74 1011.60 1011.52 1011.51 1011.56 1011.67 1011.82 1012.01 1012.22 1012.43 1012.64 1012.84 1013.01 1013.16
1013.63 1013.99 1014.36 1014.70 1015.01 1015.27 1015.47 1015.62 1015.70 1015.74 1015.72 1015.68 1015.61 1015.53 1015.45 1015.36 1015.26 1015.15 1015.03 1014.88 1014.70 1014.49 1014.24 1013.96 1013.65 1013.33 1013.00 1012.67 1012.38 1012.11 1011.90 1011.74 1011.64 1011.60 1011.62 1011.69 1011.80 1011.95 1012.12 1012.30 1012.48 1012.65 1012.79 1012.91
1013.92 1014.28 1014.63 1014.95 1015.22 1015.43 1015.58 1015.66 1015.69 1015.67 1015.61 1015.53 1015.43 1015.33 1015.23 1015.13 1015.03 1014.94 1014.83 1014.70 1014.55 1014.37 1014.16 1013.91 1013.64 1013.35 1013.05 1012.76 1012.47 1012.22 1012.00 1011.82 1011.70 1011.63 1011.61 1011.63 1011.70 1011.80 1011.93 1012.07 1012.20 1012.33 1012.43 1012.51
1014.25 1014.58 1014.89 1015.15 1015.36 1015.50 1015.58 1015.60 1015.57 1015.50 1015.40 1015.28 1015.15 1015.03 1014.91 1014.81 1014.71 1014.62 1014.52 1014.41 1014.28 1014.13 1013.95 1013.74 1013.51 1013.25 1012.98 1012.71 1012.45 1012.20 1011.98 1011.80 1011.65 1011.55 1011.49 1011.48 1011.50 1011.55 1011.63 1011.71 1011.80 1011.88 1011.95 1011.98
1014.57 1014.85 1015.08 1015.27 1015.39 1015.46 1015.46 1015.42 1015.33 1015.20 1015.06 1014.91 1014.76 1014.62 1014.49 1014.38 1014.27 1014.18 1014.09 1013.99 1013.87 1013.74 1013.59 1013.41 1013.21 1012.99 1012.75 1012.51 1012.27 1012.05 1011.84 1011.65 1011.49 1011.37 1011.28 1011.22 1011.20 1011.20 1011.23 1011.27 1011.31 1011.35 1011.38 1011.38
1014.81 1015.01 1015.15 1015.24 1015.27 1015.25 1015.18 1015.07 1014.92 1014.76 1014.59 1014.41 1014.24 1014.09 1013.95 1013.83 1013.72 1013.62 1013.53 1013.43 1013.33 1013.21 1013.07 1012.92 1012.75 1012.57 1012.37 1012.17 1011.96 1011.76 1011.56 1011.39 1011.23 1011.09 1010.98 1010.90 1010.84 1010.81 1010.80 1010.80 1010.81 1010.81 1010.81 1010.79
1014.89 1014.99 1015.03 1015.02 1014.96 1014.86 1014.72 1014.55 1014.37 1014.18 1013.98 1013.79 1013.62 1013.46 1013.32 1013.19 1013.08 1012.98 1012.88 1012.78 1012.68 1012.57 1012.45 1012.32 1012.19 1012.04 1011.88 1011.71 1011.55 1011.38 1011.21 1011.05 1010.91 1010.77 1010.66 1010.56 1010.49 1010.43 1010.40 1010.38 1010.37 1010.37 1010.35 1010.33
1014.74 1014.74 1014.69 1014.59 1014.45 1014.29 1014.10 1013.90 1013.69 1013.49 1013.29 1013.11 1012.94 1012.79 1012.65 1012.52 1012.41 1012.30 1012.19 1012.09 1011.99 1011.89 1011.79 1011.68 1011.57 1011.46 1011.34 1011.22 1011.09 1010.97 1010.84 1010.71 1010.59 1010.47 1010.37 1010.28 1010.21 1010.16 1010.12 1010.10 1010.09 1010.09 1010.08 1010.07
Thickness
5761 5773 5779 5779 5783 5786 5777 5768 5758 5762 5766 5776 5785 5788 5790 5792 5791 5789 5787 5787 5788 5787 5785 5783 5782 5781 5780 5779 5778 5776 5773 5770 5768 5767 5764 5760 5758 5756 5752 5749 5748 5747 5746 5743
5752 5767 5771 5769 5777 5781 5780 5778 5771 5768 5765 5781 5786 5788 5785 5785 5784 5781 5780 5781 5781 5780 5778 5777 5776 5775 5773 5773 5772 5771 5768 5765 5763 5761 5758 5756 5753 5750 5746 5744 5743 5743 5741 5739
5727 5748 5753 5741 5761 5769 5770 5776 5773 5760 5766 5778 5775 5776 5776 5778 5778 5776 5776 5776 5775 5775 5774 5773 5772 5771 5768 5767 5766 5763 5761 5760 5758 5755 5752 5750 5748 5745 5742 5739 5738 5736 5735 5733
5714 5726 5714 5735 5766 5771 5765 5765 5771 5770 5770 5774 5774 5773 5774 5775 5773 5770 5770 5769 5769 5770 5770 5770 5770 5768 5766 5763 5759 5756 5754 5753 5751 5749 5746 5744 5742 5740 5738 5735 5733 5731 5729 5727
5699 5701 5711 5735 5752 5756 5750 5743 5759 5760 5762 5764 5769 5766 5761 5767 5769 5768 5767 5767 5766 5766 5766 5765 5764 5763 5760 5756 5752 5750 5748 5746 5746 5744 5741 5738 5736 5734 5732 5730 5728 5726 5725 5722
5695 5695 5695 5716 5745 5758 5749 5725 5746 5752 5751 5753 5754 5740 5742 5757 5760 5761 5761 5761 5759 5759 5758 5757 5757 5757 5753 5749 5746 5744 5743 5742 5741 5739 5736 5733 5732 5731 5728 5726 5723 5722 5719 5717
5686 5685 5694 5721 5740 5746 5716 5712 5736 5741 5741 5743 5741 5741 5745 5750 5751 5751 5751 5751 5752 5751 5748 5748 5749 5747 5744 5742 5741 5741 5740 5738 5736 5734 5732 5730 5728 5726 5722 5719 5716 5714 5712 5710
5676 5673 5682 5716 5724 5715 5711 5722 5728 5731 5733 5733 5734 5737 5739 5739 5740 5741 5740 5741 5742 5740 5739 5739 5739 5738 5735 5734 5737 5736 5733 5731 5729 5728 5726 5725 5722 5718 5715 5711 5708 5706 5704 5701
5677 5677 5692 5705 5708 5712 5715 5715 5718 5719 5723 5725 5724 5724 5726 5727 5728 5729 5730 5730 5730 5729 5727 5728 5728 5728 5726 5727 5728 5726 5724 5722 5721 5721 5719 5717 5714 5711 5708 5705 5701 5698 5695 5693
5673 5679 5689 5696 5701 5705 5708 5709 5711 5713 5715 5715 5713 5714 5713 5713 5714 5715 5717 5717 5717 5716 5714 5714 5715 5716 5717 5719 5719 5718 5715 5714 5713 5712 5709 5707 5706 5703 5700 5697 5694 5690 5686 5684
5663 5672 5680 5685 5689 5694 5697 5700 5702 5704 5705 5704 5702 5703 5702 5702 5702 5702 5703 5704 5704 5703 5702 5702 5704 5705 5707 5709 5709 5708 5706 5705 5704 5703 5700 5697 5695 5692 5691 5689 5688 5684 5680 5677
5652 5662 5664 5669 5679 5685 5685 5686 5689 5690 5691 5693 5692 5690 5692 5690 5690 5691 5691 5692 5692 5692 5692 5692 5694 5695 5696 5697 5697 5696 5695 5695 5694 5692 5690 5686 5683 5680 5679 5678 5677 5676 5674 5670
5657 5661 5663 5668 5672 5675 5675 5676 5679 5680 5680 5680 5681 5681 5681 5680 5680 5680 5681 5680 5680 5681 5681 5682 5683 5684 5685 5685 5686 5685 5685 5685 5684 5682 5679 5676 5674 5671 5668 5665 5664 5663 5662 5660
5655 5655 5653 5657 5660 5665 5666 5667 5669 5670 5671 5670 5669 5669 5669 5668 5669 5668 5668 5669 5670 5671 5670 5670 5671 5673 5674 5675 5675 5675 5675 5675 5674 5672 5670 5668 5665 5663 5660 5657 5654 5651 5650 5648
5648 5648 5647 5651 5653 5656 5657 5658 5657 5657 5657 5657 5658 5657 5657 5656 5656 5657 5658 5659 5660 5660 5659 5660 5660 5661 5663 5664 5664 5664 5664 5664 5663 5661 5660 5658 5656 5653 5651 5648 5645 5642 5638 5636
5641 5642 5643 5642 5643 5645 5646 5646 5645 5646 5645 5644 5645 5645 5646 5646 5647 5647 5648 5650 5649 5648 5649 5649 5650 5652 5653 5653 5653 5653 5654 5654 5654 5652 5649 5647 5645 5642 5639 5637 5635 5632 5629 5626
5631 5631 5632 5632 5634 5635 5636 5636 5635 5635 5636 5635 5635 5635 5636 5636 5636 5637 5638 5639 5640 5640 5640 5641 5641 5643 5643 5643 5642 5643 5643 5643 5644 5642 5639 5637 5635 5633 5630 5628 5625 5622 5620 5617
5627 5628 5629 5628 5627 5627 5627 5628 5627 5627 5627 5627 5627 5627 5627 5627 5626 5627 5628 5629 5630 5630 5631 5632 5633 5634 5634 5635 5634 5634 5634 5633 5633 5632 5630 5628 5626 5624 5621 5618 5616 5613 5610 5607
5621 5622 5622 5622 5621 5620 5619 5619 5619 5619 5620 5619 5619 5619 5620 5620 5620 5619 5620 5620 5620 5620 5622 5624 5625 5626 5626 5627 5627 5627 5626 5626 5625 5624 5622 5620 5618 5616 5613 5610 5607 5605 5602 5598
5614 5615 5615 5614 5614 5613 5611 5612 5612 5611 5611 5611 5611 5611 5612 5612 5612 5611 5611 5611 5612 5613 5615 5617 5617 5618 5617 5618 5619 5618 5618 5618 5616 5615 5613 5611 5609 5607 5604 5602 5599 5597 5593 5590
5607 5608 5607 5606 5605 5606 5605 5605 5604 5603 5603 5604 5603 5603 5603 5604 5604 5603 5603 5603 5606 5608 5609 5610 5610 5610 5610 5610 5610 5609 5609 5609 5608 5606 5605 5603 5600 5598 5595 5593 5590 5588 5585 5582
5600 5600 5600 5599 5598 5598 5598 5598 5596 5596 5596 5596 5596 5596 5596 5596 5596 5597 5598 5599 5600 5601 5602 5602 5603 5604 5604 5604 5603 5602 5601 5600 5599 5597 5596 5594 5591 5589 5586 5584 5581 5578 5575 5573
5595 5595 5594 5593 5592 5591 5591 5590 5589 5588 5588 5589 5589 5590 5590 5591 5590 5591 5591 5594 5595 5596 5595 5596 5597 5598 5598 5597 5596 5595 5594 5592 5591 5589 5588 5586 5584 5581 5578 5575 5572 5569 5566 5563
5591 5591 5590 5590 5588 5586 5583 5582 5582 5582 5582 5582 5584 5585 5585 5585 5585 5587 5588 5590 5590 5590 5589 5589 5590 5591 5591 5590 5589 5588 5587 5585 5584 5582 5581 5579 5576 5573 5570 5567 5564 5561 5558 5556
5588 5588 5587 5585 5582 5579 5578 5577 5576 5576 5576 5577 5579 5581 5581 5582 5581 5582 5583 5584 5584 5584 5583 5583 5584 5583 5583 5581 5580 5579 5579 5578 5577 5576 5574 5571 5568 5566 5563 5559 5557 5554 5551 5549
5585 5583 5582 5581 5579 5577 5575 5574 5573 5573 5573 5574 5575 5577 5578 5579 5580 5579 5579 5579 5579 5579 5578 5577 5577 5576 5575 5575 5574 5573 5572 5571 5570 5569 5567 5565 5562 5559 5557 5554 5551 5548 5545 5543
5582 5580 5579 5578 5577 5576 5575 5574 5573 5572 5572 5572 5573 5575 5576 5576 5576 5575 5575 5574 5574 5573 5573 5572 5571 5570 5569 5569 5568 5568 5566 5565 5564 5562 5560 5558 5555 5553 5550 5548 5545 5543 5540 5536